• En España
  • Lista de países
  • Para 7 días
  • Temperatura del agua
  • Mapa Satelital
  • El tiempo en el mapa
  • Informadores
  • user-avatar
    Iniciar sesión

    Tiempo cada hora Kazarma

    Hoy, 15 Agosto, Miércoles

    Tiempo Temperatura Precipitaciones Viento Presión Humedad
    00:00 +13°C° 0 mm 1 mps 743 mmHg 92%
    01:00 +13°C° 0 mm 1 mps 743 mmHg 94%
    02:00 +12°C° 0 mm 1 mps 743 mmHg 95%
    03:00 +12°C° 0 mm 1 mps 744 mmHg 96%
    04:00 +12°C° 0 mm 1 mps 744 mmHg 96%
    05:00 +13°C° 0 mm 2 mps 744 mmHg 92%
    06:00 +13°C° 0 mm 2 mps 744 mmHg 89%
    07:00 +14°C° 0 mm 2 mps 744 mmHg 85%
    08:00 +16°C° 0 mm 2 mps 745 mmHg 76%
    09:00 +18°C° 0 mm 3 mps 745 mmHg 67%
    10:00 +20°C° 0 mm 3 mps 745 mmHg 58%
    11:00 +20°C° 0 mm 3 mps 745 mmHg 55%
    12:00 +21°C° 0 mm 3 mps 745 mmHg 51%
    13:00 +22°C° 0 mm 3 mps 745 mmHg 48%
    14:00 +22°C° 0 mm 3 mps 745 mmHg 48%
    15:00 +22°C° 0 mm 3 mps 745 mmHg 48%
    16:00 +22°C° 0 mm 3 mps 745 mmHg 48%
    17:00 +21°C° 0 mm 3 mps 745 mmHg 55%
    18:00 +20°C° 0 mm 2 mps 746 mmHg 62%
    19:00 +19°C° 0 mm 2 mps 746 mmHg 68%
    20:00 +17°C° 0 mm 2 mps 746 mmHg 73%
    21:00 +16°C° 0 mm 2 mps 746 mmHg 77%
    22:00 +15°C° 0 mm 2 mps 746 mmHg 81%
    23:00 +14°C° 0 mm 1 mps 746 mmHg 84%

    Mañana, 16 Agosto, Jueves

    Tiempo Temperatura Precipitaciones Viento Presión Humedad
    00:00 +13°C° 0 mm 1 mps 746 mmHg 87%
    01:00 +13°C° 0 mm 1 mps 746 mmHg 90%
    02:00 +13°C° 0 mm 1 mps 746 mmHg 91%
    03:00 +12°C° 0 mm 1 mps 746 mmHg 93%
    04:00 +12°C° 0 mm 1 mps 746 mmHg 95%
    05:00 +13°C° 0 mm 2 mps 746 mmHg 90%
    06:00 +14°C° 0 mm 2 mps 745 mmHg 86%
    07:00 +15°C° 0 mm 2 mps 745 mmHg 82%
    08:00 +14°C° 1,9 mm 3 mps 744 mmHg 86%
    09:00 +14°C° 1,9 mm 3 mps 744 mmHg 89%
    10:00 +14°C° 1,9 mm 4 mps 743 mmHg 93%
    11:00 +15°C° 1,5 mm 4 mps 743 mmHg 93%
    12:00 +15°C° 1,5 mm 4 mps 743 mmHg 94%
    13:00 +17°C° 1,5 mm 4 mps 742 mmHg 94%
    14:00 +17°C° 0,7 mm 4 mps 742 mmHg 94%
    15:00 +18°C° 0,7 mm 4 mps 742 mmHg 93%
    16:00 +19°C° 0,7 mm 4 mps 742 mmHg 93%
    17:00 +19°C° 0,5 mm 3 mps 742 mmHg 94%
    18:00 +18°C° 0,5 mm 3 mps 742 mmHg 94%
    19:00 +18°C° 0,5 mm 3 mps 742 mmHg 95%
    20:00 +17°C° 0,1 mm 3 mps 742 mmHg 96%
    21:00 +16°C° 0,1 mm 3 mps 743 mmHg 96%
    22:00 +14°C° 0,1 mm 3 mps 743 mmHg 96%
    23:00 +13°C° 0 mm 3 mps 743 mmHg 96%

    Pasado mañana, 17 Agosto, Viernes

    Tiempo Temperatura Precipitaciones Viento Presión Humedad
    00:00 +13°C° 0 mm 3 mps 743 mmHg 96%
    01:00 +12°C° 0 mm 3 mps 744 mmHg 96%
    02:00 +12°C° 0 mm 3 mps 744 mmHg 97%
    03:00 +12°C° 0 mm 2 mps 744 mmHg 97%
    04:00 +12°C° 0 mm 2 mps 745 mmHg 97%
    05:00 +11°C° 0 mm 3 mps 745 mmHg 96%
    06:00 +11°C° 0 mm 3 mps 745 mmHg 95%
    07:00 +11°C° 0 mm 3 mps 746 mmHg 94%
    08:00 +13°C° 0 mm 3 mps 746 mmHg 85%
    09:00 +16°C° 0 mm 3 mps 746 mmHg 76%
    10:00 +17°C° 0 mm 3 mps 747 mmHg 67%
    11:00 +18°C° 0 mm 4 mps 747 mmHg 61%
    12:00 +20°C° 0 mm 4 mps 747 mmHg 54%
    13:00 +21°C° 0 mm 4 mps 747 mmHg 48%
    14:00 +21°C° 0 mm 4 mps 747 mmHg 49%
    15:00 +20°C° 0 mm 4 mps 747 mmHg 50%
    16:00 +20°C° 0 mm 3 mps 747 mmHg 51%
    17:00 +19°C° 0 mm 3 mps 747 mmHg 58%
    18:00 +17°C° 0 mm 3 mps 748 mmHg 66%
    19:00 +16°C° 0 mm 2 mps 748 mmHg 74%
    20:00 +15°C° 0 mm 2 mps 748 mmHg 79%
    21:00 +13°C° 0 mm 2 mps 749 mmHg 84%
    22:00 +12°C° 0 mm 2 mps 749 mmHg 89%
    23:00 +10°C° 0 mm 2 mps 749 mmHg 89%

    18 Agosto, Sábado

    Tiempo Temperatura Precipitaciones Viento Presión Humedad
    00:00 +10°C° 0 mm 2 mps 749 mmHg 90%
    01:00 +9°C° 0 mm 2 mps 749 mmHg 90%
    02:00 +8°C° 0 mm 2 mps 750 mmHg 92%
    03:00 +8°C° 0 mm 2 mps 750 mmHg 93%
    04:00 +7°C° 0 mm 2 mps 750 mmHg 94%
    05:00 +7°C° 0 mm 2 mps 751 mmHg 91%
    06:00 +8°C° 0 mm 2 mps 751 mmHg 87%
    07:00 +9°C° 0 mm 3 mps 751 mmHg 84%
    08:00 +10°C° 0 mm 3 mps 751 mmHg 76%
    09:00 +12°C° 0 mm 3 mps 751 mmHg 68%
    10:00 +13°C° 0 mm 4 mps 751 mmHg 60%
    11:00 +14°C° 0 mm 4 mps 751 mmHg 60%
    12:00 +14°C° 0 mm 4 mps 751 mmHg 59%
    13:00 +14°C° 0 mm 4 mps 751 mmHg 59%
    14:00 +15°C° 0 mm 4 mps 751 mmHg 58%
    15:00 +15°C° 0 mm 4 mps 751 mmHg 58%
    16:00 +15°C° 0 mm 4 mps 751 mmHg 58%
    17:00 +16°C° 0 mm 3 mps 751 mmHg 63%
    18:00 +14°C° 0 mm 3 mps 752 mmHg 68%
    19:00 +14°C° 0 mm 2 mps 752 mmHg 73%
    20:00 +13°C° 0 mm 2 mps 752 mmHg 77%
    21:00 +10°C° 0 mm 2 mps 752 mmHg 81%
    22:00 +9°C° 0 mm 2 mps 752 mmHg 85%
    23:00 +9°C° 0 mm 1 mps 753 mmHg 86%

    19 Agosto, Domingo

    Tiempo Temperatura Precipitaciones Viento Presión Humedad
    00:00 +9°C° 0 mm 1 mps 753 mmHg 87%
    01:00 +8°C° 0 mm 1 mps 753 mmHg 89%
    02:00 +8°C° 0 mm 1 mps 753 mmHg 90%
    03:00 +8°C° 0 mm 1 mps 753 mmHg 91%
    04:00 +7°C° 0 mm 1 mps 753 mmHg 92%
    05:00 +8°C° 0 mm 1 mps 754 mmHg 87%
    06:00 +9°C° 0 mm 1 mps 754 mmHg 82%
    07:00 +11°C° 0 mm 1 mps 754 mmHg 78%
    08:00 +13°C° 0 mm 1 mps 754 mmHg 70%
    09:00 +15°C° 0 mm 1 mps 754 mmHg 63%
    10:00 +17°C° 0 mm 2 mps 753 mmHg 55%
    11:00 +18°C° 0 mm 2 mps 753 mmHg 51%
    12:00 +19°C° 0 mm 2 mps 753 mmHg 47%
    13:00 +19°C° 0 mm 2 mps 752 mmHg 44%
    14:00 +20°C° 0 mm 2 mps 752 mmHg 44%
    15:00 +20°C° 0 mm 2 mps 752 mmHg 44%
    16:00 +20°C° 0 mm 2 mps 752 mmHg 44%
    17:00 +18°C° 0 mm 2 mps 751 mmHg 52%
    18:00 +18°C° 0 mm 1 mps 751 mmHg 59%
    19:00 +16°C° 0 mm 1 mps 751 mmHg 67%
    20:00 +14°C° 0 mm 1 mps 751 mmHg 70%
    21:00 +13°C° 0 mm 1 mps 751 mmHg 73%
    22:00 +10°C° 0 mm 0 mps 751 mmHg 76%
    23:00 +10°C° 0 mm 0 mps 751 mmHg 78%

    20 Agosto, Lunes

    Tiempo Temperatura Precipitaciones Viento Presión Humedad
    00:00 +9°C° 0 mm 0 mps 751 mmHg 80%
    01:00 +9°C° 0 mm 0 mps 751 mmHg 81%
    02:00 +9°C° 0 mm 0 mps 751 mmHg 83%
    03:00 +8°C° 0 mm 0 mps 751 mmHg 84%
    04:00 +8°C° 0 mm 0 mps 751 mmHg 86%
    05:00 +9°C° 0 mm 0 mps 751 mmHg 82%
    06:00 +10°C° 0 mm 0 mps 751 mmHg 78%
    07:00 +11°C° 0 mm 0 mps 751 mmHg 75%
    08:00 +14°C° 0 mm 0 mps 751 mmHg 68%
    09:00 +16°C° 0 mm 0 mps 750 mmHg 61%
    10:00 +18°C° 0 mm 0 mps 750 mmHg 55%
    11:00 +20°C° 0 mm 0 mps 750 mmHg 52%
    12:00 +21°C° 0 mm 0 mps 749 mmHg 49%
    13:00 +24°C° 0 mm 1 mps 749 mmHg 46%
    14:00 +23°C° 0 mm 1 mps 749 mmHg 47%
    15:00 +23°C° 0 mm 1 mps 749 mmHg 48%
    16:00 +21°C° 0 mm 0 mps 748 mmHg 49%
    17:00 +19°C° 0 mm 0 mps 748 mmHg 55%
    18:00 +18°C° 0 mm 0 mps 748 mmHg 61%
    19:00 +16°C° 0 mm 0 mps 748 mmHg 66%
    20:00 +15°C° 0 mm 0 mps 748 mmHg 70%
    21:00 +15°C° 0 mm 1 mps 748 mmHg 74%
    22:00 +13°C° 0 mm 1 mps 748 mmHg 78%
    23:00 +13°C° 0 mm 1 mps 747 mmHg 79%
    Mostrar más